Location: Unspecified
(49.2170°N, 0.0000°E)
Time: 17:19:23
(UTC+00:00)

Envisat - Pass Details

Date: 26 November 2020
Orbit: 764 x 766 km, 98.1° (Epoch: 20 January)

Event Time Altitude Azimuth Distance (km) Brightness Sun altitude
Rises 06:42:19 0° 9° (N) 3,247 6.1 -7.3°
Reaches altitude 10° 06:44:42 10° 4° (N) 2,316 5.3 -6.9°
Maximum altitude 06:49:34 47° 292° (WNW) 1,009 3.2 -6.2°
Drops below altitude 10° 06:54:25 10° 219° (SW) 2,300 5.4 -5.5°
Sets 06:56:46 0° 214° (SW) 3,221 6.2 -5.2°
